This is the latest recevied weather packets stored in our database for station/object F4GQK-13. If no packets are shown the sender has not sent any weather packets the latest 10 day(s).
| Time | Temp. | Humidity | Pressure | Rain* | Wind** | Luminosity | Snow |
|---|---|---|---|---|---|---|---|
| 1777703405 | 14.44° C | 98% | 1020.2 hPa | 0 mm | - | 94 W/m² | - |
| 1777703105 | 13.89° C | 98% | 1020.2 hPa | 0 mm | - | 88 W/m² | - |
| 1777702805 | 13.89° C | 98% | 1020.1 hPa | 0 mm | - | 86 W/m² | - |
| 1777702505 | 13.89° C | 98% | 1020.2 hPa | 0 mm | - | 71 W/m² | - |
| 1777702205 | 13.89° C | 98% | 1020.3 hPa | 0 mm | - | 75 W/m² | - |
| 1777701905 | 13.89° C | 98% | 1020.2 hPa | 0 mm | - | 79 W/m² | - |
| 1777701605 | 13.89° C | 98% | 1020.2 hPa | 0 mm | - | 79 W/m² | - |
| 1777701305 | 13.33° C | 98% | 1020.3 hPa | 0 mm | - | 86 W/m² | - |
| 1777701006 | 13.33° C | 98% | 1020.2 hPa | 0 mm | - | 83 W/m² | - |
| 1777700704 | 13.33° C | 98% | 1020.5 hPa | 0 mm | - | 80 W/m² | - |
| 1777700405 | 13.33° C | 98% | 1020.3 hPa | 0 mm | - | 68 W/m² | - |
| 1777700105 | 12.78° C | 98% | 1020.3 hPa | 0 mm | - | 72 W/m² | - |
| 1777699805 | 12.78° C | 98% | 1020.2 hPa | 0 mm | - | 66 W/m² | - |
| 1777699505 | 12.22° C | 98% | 1020.1 hPa | 0 mm | - | 58 W/m² | - |
| 1777699205 | 12.22° C | 98% | 1020.3 hPa | 0 mm | - | 48 W/m² | - |
| 1777698905 | 12.22° C | 98% | 1020.4 hPa | 0 mm | - | 42 W/m² | - |
| 1777698605 | 12.22° C | 98% | 1020.3 hPa | 0 mm | - | 39 W/m² | - |
| 1777698305 | 12.22° C | 98% | 1020.4 hPa | 0 mm | - | 33 W/m² | - |
| 1777698005 | 11.67° C | 98% | 1020.4 hPa | 0 mm | - | 25 W/m² | - |
| 1777697705 | 11.67° C | 98% | 1020.2 hPa | 0 mm | - | 18 W/m² | - |
| 1777697404 | 11.67° C | 98% | 1020.3 hPa | 0 mm | - | 13 W/m² | - |
| 1777697105 | 11.67° C | 98% | 1020.2 hPa | 0 mm | - | 9 W/m² | - |
| 1777696805 | 11.67° C | 98% | 1020.3 hPa | 0 mm | - | 6 W/m² | - |
| 1777696505 | 11.67° C | 98% | 1020.1 hPa | 0 mm | - | 4 W/m² | - |
| 1777696203 | 11.67° C | 98% | 1020.3 hPa | 0 mm | - | 2 W/m² | - |
* Rain latest hour (hover to see other rain measurements)
** Current wind speed in m/s (hover to see current wind gust speed)